Regional Weather Roundup
Issued by NWS Mobile, AL

Home | Current Version | Previous Version | Text Only | Print | Product List | Glossary On
Versions: 1 2 3 4 5 6 7 8 9 10 11 12 13 14 15 16 17 18 19 20 21 22 23 24 25 26 27 28 29 30 31 32 33 34 35 36 37 38 39 40 41 42 43 44 45 46 47 48 49 50
000
ASUS44 KMOB 281117
RWRMOB
REGIONAL WEATHER ROUNDUP
NATIONAL WEATHER SERVICE MOBILE AL
600 AM CDT TUE JUL 28 2015

ALZ061>064-281200-
COASTAL ALABAMA


CITY           SKY/WX    TMP DP  RH WIND       PRES   REMARKS
MOBILE REG APT PTCLDY    77  74  90 NW3       29.99R
BROOKLEY FIELD CLEAR     79  73  82 W5        29.99R
GULF SHORES    NOT AVBL

$$

ALZ051>060-281200-
INTERIOR SOUTHWEST AND SOUTH CENTRAL ALABAMA


CITY           SKY/WX    TMP DP  RH WIND       PRES   REMARKS
ANDALUSIA/OPP  PTCLDY    79  73  82 CALM      29.97R
EVERGREEN      PTCLDY    74  72  93 CALM      29.99R FOG
FLORALA        MOSUNNY   74  71  91 CALM      29.99R
GREENVILLE     FAIR      74  71  91 CALM      29.98R

$$

FLZ001>006-281200-
WESTERN FLORIDA PANHANDLE


CITY           SKY/WX    TMP DP  RH WIND       PRES   REMARKS
CRESTVIEW      CLEAR     72  71  97 CALM      29.98R FOG
DESTIN         CLEAR     80  73  79 N6        29.96R
DUKE FIELD     FAIR      73  71  91 CALM      29.96R
MARY ESTHER    CLEAR     77  72  85 N3        29.95R
MILTON         SUNNY     76  73  91 NW3       29.98
PENSACOLA      CLEAR     79  72  79 NW5       29.97R
NAS PENSACOLA  MOCLDY    78  73  84 NW3       29.97R
VALPARAISO     PTCLDY    77  71  83 NW2       29.96R

$$

...MARINE OBSERVATIONS...

STATION/POSITION TIME  SKY/WX   TEMP    WIND        PRES    VSBY
                                AIR SEA DIR/SP/G
                 (UTC)          (F)     (DEG/KT/KT) (MB)    (MI)
PASCAGOULA       1000            80     300/  5/  6 1014.2R
PETIT BOIS ISL   1000            84     320/ 10/ 12 1014.8R
E DAUPHIN ISLAND 1100            83     300/ 10/ 11 1015.0R
MIDDLE BAY LIGHT 1000            82     310/ 14     1013.5R
USCG MOBILE BAY  1000            82 85  310/  4/  8 1013.5R
STATE DOCKS      1000            81 86              1014.4R
MEAHER PARK      1100            80     350/  2     1014.9R
12 S ORANGE BCH  1050            83 84  330/  8/ 10 1014.2R
WVE H/P(F/S)=  1

PENSACOLA BAY    1000            82 86  330/  5/  8 1014.2R
64 S DAUPHIN ISL 1050            85 87  310/  6/  8 1015.2R
WVE H/P(F/S)=  1

67 S FORT MORGAN 1030            84     290/  4     1014.9R
115 SE PENSACOLA 1050            86 86  290/ 12/ 14 1014.7R
WVE H/P(F/S)=  1/ 3

MID GULF/42001   1050            84 86  260/  4/  6 1015.6R
WVE H/P(F/S)=  1/ 5

EAST GULF/42003  1050            84 84  260/ 12/ 14 1014.8R
WVE H/P(F/S)=  2/ 8


$$

...NEARBY LOCATIONS

CITY           SKY/WX    TMP DP  RH WIND       PRES   REMARKS
GULFPORT       CLEAR     77  73  87 NW3       29.97R
BILOXI         CLEAR     79  75  87 VRB1      29.98R
PASCAGOULA     CLEAR     75  74  96 CALM      29.98R
HATTIESBURG    CLEAR     77  73  87 CALM      29.99R
LAUREL         CLEAR     75  70  83 W3        30.00R
MERIDIAN       CLEAR     73  71  93 CALM      29.99R
MERIDIAN NAS   CLEAR     75  72  90 W3        29.99R
MONTGOMERY     CLEAR     76  73  91 W3        29.97R FOG
MAXWELL AFB    CLEAR     76  73  91 NW2       29.96R
TROY           CLEAR     73  71  93 CALM      29.98R
FORT RUCKER    CLEAR     74  71  91 CALM      29.96R FOG
DALEVILLE      CLEAR     75  73  94 NW3       29.97R
DOTHAN         CLEAR     76  73  91 NW6       30.00R

$$

...OTHER SURROUNDING LOCATIONS...

CITY           SKY/WX    TMP DP  RH WIND       PRES   REMARKS
BIRMINGHAM     PTCLDY    74  73  97 CALM      30.02R
TUSCALOOSA     CLEAR     75  74  96 CALM      29.98R FOG
COLUMBUS GA    CLEAR     76  71  85 CALM      29.97R
PANAMA CITY    NOT AVBL
TALLAHASSEE    PTCLDY    76  74  93 CALM      29.95R
BATON ROUGE    CLEAR     76  73  91 CALM      29.98R
NEW ORLEANS    PTCLDY    80  74  81 CALM      29.98R
SLIDELL        CLEAR     73  72  96 N3        29.98R
JACKSON        CLEAR     77  70  79 CALM      29.98R
MCCOMB         CLEAR     74  73  97 CALM      30.00R

$$

...SURROUNDING MARINE OBSERVATIONS...

STATION/POSITION TIME  SKY/WX   TEMP    WIND        PRES    VSBY
                                AIR SEA DIR/SP/G
                 (UTC)          (F)     (DEG/KT/KT) (MB)    (MI)
WAVELAND         1000            80 88  320/  5/  6 1014.7R
PASCAGOULA RGN A 1000            80     320/  6/  8 1013.9R
PASCAGOULA PORT  1000               86                N/A
GRAND ISLE       1000            85 90  320/  3/  4 1014.6R
SOUTHWEST PASS   1100            85     260/  2/  3 1015.4R
PILOT STATION E  1000            84 86  260/  2/  4 1014.9R
SHELL BEACH      1000            84 88  300/  9/ 10 1014.0R
PANAMA CITY      1000            80 84   20/  1/  3 1013.3R
APALACHICOLA     1000            80 89  360/  2/  4 1013.3R
TYNDALL TOWER C  1100            83     350/  7/  7 1013.8R
S APLCHCLA/42036 1050            86 85  300/ 16/ 17 1013.2R
WVE H/P(F/S)=  3/ 4


$$




USA.gov is the U.S. government's official web portal to all federal, state and local government web resources and services.